<?xml version="1.0"?>
<gpx xmlns="http://www.topografix.com/GPX/1/1" xmlns:xsi="http://www.w3.org/2001/XMLSchema-instance" version="1.1" creator="GPX RubyGem 1.0.0 -- http://dougfales.github.io/gpx/" xsi:schemaLocation="http://www.topografix.com/GPX/1/1 http://www.topografix.com/GPX/1/1/gpx.xsd">
  <metadata>
    <name/>
    <time>2026-05-08T00:51:03+00:00</time>
    <bound minlat="90.0" minlon="180.0" maxlat="-90.0" maxlon="-180.0"/>
  </metadata>
  <trk>
    <name/>
    <trkseg>
      <trkpt lat="45.612227" lon="7.551619">
        <time>1970-01-01T00:00:00+00:00</time>
        <ele>2186.0</ele>
      </trkpt>
      <trkpt lat="45.612235" lon="7.551671">
        <time>1970-01-01T00:00:00+00:00</time>
        <ele>2186.0</ele>
      </trkpt>
      <trkpt lat="45.612219" lon="7.551717">
        <time>1970-01-01T00:00:00+00:00</time>
        <ele>2186.0</ele>
      </trkpt>
      <trkpt lat="45.612111" lon="7.551797">
        <time>1970-01-01T00:00:00+00:00</time>
        <ele>2186.0</ele>
      </trkpt>
      <trkpt lat="45.612035" lon="7.551708">
        <time>1970-01-01T00:00:00+00:00</time>
        <ele>2187.0</ele>
      </trkpt>
      <trkpt lat="45.611981" lon="7.551689">
        <time>1970-01-01T00:00:00+00:00</time>
        <ele>2187.0</ele>
      </trkpt>
      <trkpt lat="45.611737" lon="7.551706">
        <time>1970-01-01T00:00:00+00:00</time>
        <ele>2190.0</ele>
      </trkpt>
      <trkpt lat="45.611672" lon="7.551663">
        <time>1970-01-01T00:00:00+00:00</time>
        <ele>2191.0</ele>
      </trkpt>
      <trkpt lat="45.611372" lon="7.55132">
        <time>1970-01-01T00:00:00+00:00</time>
        <ele>2199.0</ele>
      </trkpt>
      <trkpt lat="45.611269" lon="7.551294">
        <time>1970-01-01T00:00:00+00:00</time>
        <ele>2200.0</ele>
      </trkpt>
      <trkpt lat="45.610818" lon="7.551601">
        <time>1970-01-01T00:00:00+00:00</time>
        <ele>2202.0</ele>
      </trkpt>
      <trkpt lat="45.610813" lon="7.551631">
        <time>1970-01-01T00:00:00+00:00</time>
        <ele>2202.0</ele>
      </trkpt>
      <trkpt lat="45.610776" lon="7.551889">
        <time>1970-01-01T00:00:00+00:00</time>
        <ele>2202.0</ele>
      </trkpt>
      <trkpt lat="45.610696" lon="7.552067">
        <time>1970-01-01T00:00:00+00:00</time>
        <ele>2203.0</ele>
      </trkpt>
      <trkpt lat="45.610533" lon="7.55211">
        <time>1970-01-01T00:00:00+00:00</time>
        <ele>2205.0</ele>
      </trkpt>
      <trkpt lat="45.610332" lon="7.552093">
        <time>1970-01-01T00:00:00+00:00</time>
        <ele>2206.0</ele>
      </trkpt>
      <trkpt lat="45.610295" lon="7.552165">
        <time>1970-01-01T00:00:00+00:00</time>
        <ele>2207.0</ele>
      </trkpt>
      <trkpt lat="45.610323" lon="7.552558">
        <time>1970-01-01T00:00:00+00:00</time>
        <ele>2210.0</ele>
      </trkpt>
      <trkpt lat="45.610316" lon="7.552707">
        <time>1970-01-01T00:00:00+00:00</time>
        <ele>2211.0</ele>
      </trkpt>
      <trkpt lat="45.610233" lon="7.552983">
        <time>1970-01-01T00:00:00+00:00</time>
        <ele>2214.0</ele>
      </trkpt>
      <trkpt lat="45.610216" lon="7.553096">
        <time>1970-01-01T00:00:00+00:00</time>
        <ele>2215.0</ele>
      </trkpt>
      <trkpt lat="45.610152" lon="7.55325">
        <time>1970-01-01T00:00:00+00:00</time>
        <ele>2217.0</ele>
      </trkpt>
      <trkpt lat="45.61003" lon="7.553327">
        <time>1970-01-01T00:00:00+00:00</time>
        <ele>2221.0</ele>
      </trkpt>
      <trkpt lat="45.609954" lon="7.553325">
        <time>1970-01-01T00:00:00+00:00</time>
        <ele>2222.0</ele>
      </trkpt>
      <trkpt lat="45.609785" lon="7.553173">
        <time>1970-01-01T00:00:00+00:00</time>
        <ele>2225.0</ele>
      </trkpt>
      <trkpt lat="45.609614" lon="7.552988">
        <time>1970-01-01T00:00:00+00:00</time>
        <ele>2228.0</ele>
      </trkpt>
      <trkpt lat="45.609458" lon="7.552856">
        <time>1970-01-01T00:00:00+00:00</time>
        <ele>2230.0</ele>
      </trkpt>
      <trkpt lat="45.609293" lon="7.552758">
        <time>1970-01-01T00:00:00+00:00</time>
        <ele>2231.0</ele>
      </trkpt>
      <trkpt lat="45.608834" lon="7.552686">
        <time>1970-01-01T00:00:00+00:00</time>
        <ele>2232.0</ele>
      </trkpt>
      <trkpt lat="45.608714" lon="7.55263">
        <time>1970-01-01T00:00:00+00:00</time>
        <ele>2232.0</ele>
      </trkpt>
      <trkpt lat="45.608616" lon="7.552615">
        <time>1970-01-01T00:00:00+00:00</time>
        <ele>2233.0</ele>
      </trkpt>
      <trkpt lat="45.608457" lon="7.55266">
        <time>1970-01-01T00:00:00+00:00</time>
        <ele>2232.0</ele>
      </trkpt>
      <trkpt lat="45.608325" lon="7.552635">
        <time>1970-01-01T00:00:00+00:00</time>
        <ele>2232.0</ele>
      </trkpt>
      <trkpt lat="45.608177" lon="7.552666">
        <time>1970-01-01T00:00:00+00:00</time>
        <ele>2231.0</ele>
      </trkpt>
      <trkpt lat="45.607999" lon="7.552659">
        <time>1970-01-01T00:00:00+00:00</time>
        <ele>2230.0</ele>
      </trkpt>
      <trkpt lat="45.607838" lon="7.552608">
        <time>1970-01-01T00:00:00+00:00</time>
        <ele>2230.0</ele>
      </trkpt>
      <trkpt lat="45.607738" lon="7.552689">
        <time>1970-01-01T00:00:00+00:00</time>
        <ele>2229.0</ele>
      </trkpt>
      <trkpt lat="45.607645" lon="7.552804">
        <time>1970-01-01T00:00:00+00:00</time>
        <ele>2227.0</ele>
      </trkpt>
      <trkpt lat="45.607516" lon="7.552791">
        <time>1970-01-01T00:00:00+00:00</time>
        <ele>2228.0</ele>
      </trkpt>
      <trkpt lat="45.607411" lon="7.552699">
        <time>1970-01-01T00:00:00+00:00</time>
        <ele>2230.0</ele>
      </trkpt>
      <trkpt lat="45.607085" lon="7.552771">
        <time>1970-01-01T00:00:00+00:00</time>
        <ele>2231.0</ele>
      </trkpt>
      <trkpt lat="45.60681" lon="7.552906">
        <time>1970-01-01T00:00:00+00:00</time>
        <ele>2228.0</ele>
      </trkpt>
      <trkpt lat="45.60654" lon="7.553078">
        <time>1970-01-01T00:00:00+00:00</time>
        <ele>2225.0</ele>
      </trkpt>
      <trkpt lat="45.606304" lon="7.553388">
        <time>1970-01-01T00:00:00+00:00</time>
        <ele>2224.0</ele>
      </trkpt>
      <trkpt lat="45.6063" lon="7.55346">
        <time>1970-01-01T00:00:00+00:00</time>
        <ele>2224.0</ele>
      </trkpt>
      <trkpt lat="45.606392" lon="7.553526">
        <time>1970-01-01T00:00:00+00:00</time>
        <ele>2224.0</ele>
      </trkpt>
      <trkpt lat="45.606529" lon="7.553578">
        <time>1970-01-01T00:00:00+00:00</time>
        <ele>2225.0</ele>
      </trkpt>
      <trkpt lat="45.606773" lon="7.553972">
        <time>1970-01-01T00:00:00+00:00</time>
        <ele>2225.0</ele>
      </trkpt>
      <trkpt lat="45.606978" lon="7.554252">
        <time>1970-01-01T00:00:00+00:00</time>
        <ele>2224.0</ele>
      </trkpt>
      <trkpt lat="45.606901" lon="7.554366">
        <time>1970-01-01T00:00:00+00:00</time>
        <ele>2226.0</ele>
      </trkpt>
      <trkpt lat="45.606915" lon="7.554733">
        <time>1970-01-01T00:00:00+00:00</time>
        <ele>2229.0</ele>
      </trkpt>
      <trkpt lat="45.606956" lon="7.554937">
        <time>1970-01-01T00:00:00+00:00</time>
        <ele>2229.0</ele>
      </trkpt>
      <trkpt lat="45.606998" lon="7.555258">
        <time>1970-01-01T00:00:00+00:00</time>
        <ele>2229.0</ele>
      </trkpt>
      <trkpt lat="45.607007" lon="7.555645">
        <time>1970-01-01T00:00:00+00:00</time>
        <ele>2234.0</ele>
      </trkpt>
      <trkpt lat="45.607034" lon="7.555954">
        <time>1970-01-01T00:00:00+00:00</time>
        <ele>2237.0</ele>
      </trkpt>
      <trkpt lat="45.607076" lon="7.556223">
        <time>1970-01-01T00:00:00+00:00</time>
        <ele>2238.0</ele>
      </trkpt>
      <trkpt lat="45.607122" lon="7.556453">
        <time>1970-01-01T00:00:00+00:00</time>
        <ele>2240.0</ele>
      </trkpt>
      <trkpt lat="45.607347" lon="7.556722">
        <time>1970-01-01T00:00:00+00:00</time>
        <ele>2237.0</ele>
      </trkpt>
      <trkpt lat="45.607429" lon="7.556846">
        <time>1970-01-01T00:00:00+00:00</time>
        <ele>2237.0</ele>
      </trkpt>
      <trkpt lat="45.607521" lon="7.557069">
        <time>1970-01-01T00:00:00+00:00</time>
        <ele>2239.0</ele>
      </trkpt>
      <trkpt lat="45.607457" lon="7.557247">
        <time>1970-01-01T00:00:00+00:00</time>
        <ele>2246.0</ele>
      </trkpt>
      <trkpt lat="45.607117" lon="7.557056">
        <time>1970-01-01T00:00:00+00:00</time>
        <ele>2250.0</ele>
      </trkpt>
      <trkpt lat="45.606961" lon="7.556912">
        <time>1970-01-01T00:00:00+00:00</time>
        <ele>2255.0</ele>
      </trkpt>
      <trkpt lat="45.606814" lon="7.556689">
        <time>1970-01-01T00:00:00+00:00</time>
        <ele>2259.0</ele>
      </trkpt>
      <trkpt lat="45.606493" lon="7.556361">
        <time>1970-01-01T00:00:00+00:00</time>
        <ele>2265.0</ele>
      </trkpt>
      <trkpt lat="45.606295" lon="7.556236">
        <time>1970-01-01T00:00:00+00:00</time>
        <ele>2267.0</ele>
      </trkpt>
      <trkpt lat="45.605933" lon="7.556059">
        <time>1970-01-01T00:00:00+00:00</time>
        <ele>2270.0</ele>
      </trkpt>
      <trkpt lat="45.605795" lon="7.556039">
        <time>1970-01-01T00:00:00+00:00</time>
        <ele>2271.0</ele>
      </trkpt>
      <trkpt lat="45.60546" lon="7.55619">
        <time>1970-01-01T00:00:00+00:00</time>
        <ele>2276.0</ele>
      </trkpt>
      <trkpt lat="45.605285" lon="7.556183">
        <time>1970-01-01T00:00:00+00:00</time>
        <ele>2278.0</ele>
      </trkpt>
      <trkpt lat="45.605138" lon="7.556229">
        <time>1970-01-01T00:00:00+00:00</time>
        <ele>2281.0</ele>
      </trkpt>
      <trkpt lat="45.605106" lon="7.556407">
        <time>1970-01-01T00:00:00+00:00</time>
        <ele>2285.0</ele>
      </trkpt>
      <trkpt lat="45.60512" lon="7.556964">
        <time>1970-01-01T00:00:00+00:00</time>
        <ele>2296.0</ele>
      </trkpt>
      <trkpt lat="45.605189" lon="7.557076">
        <time>1970-01-01T00:00:00+00:00</time>
        <ele>2297.0</ele>
      </trkpt>
      <trkpt lat="45.605212" lon="7.557076">
        <time>1970-01-01T00:00:00+00:00</time>
        <ele>2297.0</ele>
      </trkpt>
      <trkpt lat="45.605464" lon="7.557463">
        <time>1970-01-01T00:00:00+00:00</time>
        <ele>2302.0</ele>
      </trkpt>
      <trkpt lat="45.605593" lon="7.557739">
        <time>1970-01-01T00:00:00+00:00</time>
        <ele>2305.0</ele>
      </trkpt>
      <trkpt lat="45.605597" lon="7.558073">
        <time>1970-01-01T00:00:00+00:00</time>
        <ele>2308.0</ele>
      </trkpt>
      <trkpt lat="45.605423" lon="7.558992">
        <time>1970-01-01T00:00:00+00:00</time>
        <ele>2323.0</ele>
      </trkpt>
      <trkpt lat="45.605414" lon="7.559215">
        <time>1970-01-01T00:00:00+00:00</time>
        <ele>2324.0</ele>
      </trkpt>
      <trkpt lat="45.605322" lon="7.559261">
        <time>1970-01-01T00:00:00+00:00</time>
        <ele>2329.0</ele>
      </trkpt>
      <trkpt lat="45.605102" lon="7.558631">
        <time>1970-01-01T00:00:00+00:00</time>
        <ele>2333.0</ele>
      </trkpt>
      <trkpt lat="45.604978" lon="7.558415">
        <time>1970-01-01T00:00:00+00:00</time>
        <ele>2332.0</ele>
      </trkpt>
      <trkpt lat="45.604886" lon="7.558388">
        <time>1970-01-01T00:00:00+00:00</time>
        <ele>2335.0</ele>
      </trkpt>
      <trkpt lat="45.6049" lon="7.558526">
        <time>1970-01-01T00:00:00+00:00</time>
        <ele>2338.0</ele>
      </trkpt>
      <trkpt lat="45.604872" lon="7.558743">
        <time>1970-01-01T00:00:00+00:00</time>
        <ele>2344.0</ele>
      </trkpt>
      <trkpt lat="45.604817" lon="7.558703">
        <time>1970-01-01T00:00:00+00:00</time>
        <ele>2345.0</ele>
      </trkpt>
      <trkpt lat="45.604711" lon="7.558566">
        <time>1970-01-01T00:00:00+00:00</time>
        <ele>2347.0</ele>
      </trkpt>
      <trkpt lat="45.604565" lon="7.558415">
        <time>1970-01-01T00:00:00+00:00</time>
        <ele>2349.0</ele>
      </trkpt>
      <trkpt lat="45.604399" lon="7.55827">
        <time>1970-01-01T00:00:00+00:00</time>
        <ele>2352.0</ele>
      </trkpt>
      <trkpt lat="45.604303" lon="7.558211">
        <time>1970-01-01T00:00:00+00:00</time>
        <ele>2355.0</ele>
      </trkpt>
      <trkpt lat="45.604183" lon="7.558251">
        <time>1970-01-01T00:00:00+00:00</time>
        <ele>2360.0</ele>
      </trkpt>
      <trkpt lat="45.60411" lon="7.558421">
        <time>1970-01-01T00:00:00+00:00</time>
        <ele>2363.0</ele>
      </trkpt>
      <trkpt lat="45.604098" lon="7.558525">
        <time>1970-01-01T00:00:00+00:00</time>
        <ele>2364.0</ele>
      </trkpt>
      <trkpt lat="45.604078" lon="7.558716">
        <time>1970-01-01T00:00:00+00:00</time>
        <ele>2367.0</ele>
      </trkpt>
      <trkpt lat="45.604101" lon="7.559077">
        <time>1970-01-01T00:00:00+00:00</time>
        <ele>2369.0</ele>
      </trkpt>
      <trkpt lat="45.604073" lon="7.559294">
        <time>1970-01-01T00:00:00+00:00</time>
        <ele>2370.0</ele>
      </trkpt>
      <trkpt lat="45.604009" lon="7.55953">
        <time>1970-01-01T00:00:00+00:00</time>
        <ele>2371.0</ele>
      </trkpt>
      <trkpt lat="45.603848" lon="7.559983">
        <time>1970-01-01T00:00:00+00:00</time>
        <ele>2371.0</ele>
      </trkpt>
      <trkpt lat="45.603807" lon="7.560147">
        <time>1970-01-01T00:00:00+00:00</time>
        <ele>2372.0</ele>
      </trkpt>
      <trkpt lat="45.603848" lon="7.560213">
        <time>1970-01-01T00:00:00+00:00</time>
        <ele>2371.0</ele>
      </trkpt>
      <trkpt lat="45.603936" lon="7.560259">
        <time>1970-01-01T00:00:00+00:00</time>
        <ele>2371.0</ele>
      </trkpt>
      <trkpt lat="45.604005" lon="7.560378">
        <time>1970-01-01T00:00:00+00:00</time>
        <ele>2370.0</ele>
      </trkpt>
      <trkpt lat="45.603963" lon="7.56056">
        <time>1970-01-01T00:00:00+00:00</time>
        <ele>2371.0</ele>
      </trkpt>
      <trkpt lat="45.603867" lon="7.560803">
        <time>1970-01-01T00:00:00+00:00</time>
        <ele>2372.0</ele>
      </trkpt>
      <trkpt lat="45.603697" lon="7.561059">
        <time>1970-01-01T00:00:00+00:00</time>
        <ele>2374.0</ele>
      </trkpt>
      <trkpt lat="45.603573" lon="7.56119">
        <time>1970-01-01T00:00:00+00:00</time>
        <ele>2376.0</ele>
      </trkpt>
      <trkpt lat="45.603501" lon="7.561198">
        <time>1970-01-01T00:00:00+00:00</time>
        <ele>2376.0</ele>
      </trkpt>
      <trkpt lat="45.60344" lon="7.56123">
        <time>1970-01-01T00:00:00+00:00</time>
        <ele>2377.0</ele>
      </trkpt>
      <trkpt lat="45.603421" lon="7.561293">
        <time>1970-01-01T00:00:00+00:00</time>
        <ele>2378.0</ele>
      </trkpt>
      <trkpt lat="45.603426" lon="7.561354">
        <time>1970-01-01T00:00:00+00:00</time>
        <ele>2378.0</ele>
      </trkpt>
      <trkpt lat="45.603489" lon="7.561412">
        <time>1970-01-01T00:00:00+00:00</time>
        <ele>2379.0</ele>
      </trkpt>
      <trkpt lat="45.603559" lon="7.56144">
        <time>1970-01-01T00:00:00+00:00</time>
        <ele>2379.0</ele>
      </trkpt>
      <trkpt lat="45.603638" lon="7.561514">
        <time>1970-01-01T00:00:00+00:00</time>
        <ele>2379.0</ele>
      </trkpt>
      <trkpt lat="45.603734" lon="7.561755">
        <time>1970-01-01T00:00:00+00:00</time>
        <ele>2384.0</ele>
      </trkpt>
      <trkpt lat="45.603669" lon="7.561899">
        <time>1970-01-01T00:00:00+00:00</time>
        <ele>2389.0</ele>
      </trkpt>
      <trkpt lat="45.603564" lon="7.56207">
        <time>1970-01-01T00:00:00+00:00</time>
        <ele>2394.0</ele>
      </trkpt>
      <trkpt lat="45.603284" lon="7.562313">
        <time>1970-01-01T00:00:00+00:00</time>
        <ele>2398.0</ele>
      </trkpt>
      <trkpt lat="45.603109" lon="7.562299">
        <time>1970-01-01T00:00:00+00:00</time>
        <ele>2399.0</ele>
      </trkpt>
      <trkpt lat="45.602939" lon="7.562253">
        <time>1970-01-01T00:00:00+00:00</time>
        <ele>2399.0</ele>
      </trkpt>
      <trkpt lat="45.602893" lon="7.562391">
        <time>1970-01-01T00:00:00+00:00</time>
        <ele>2401.0</ele>
      </trkpt>
      <trkpt lat="45.602926" lon="7.562523">
        <time>1970-01-01T00:00:00+00:00</time>
        <ele>2404.0</ele>
      </trkpt>
      <trkpt lat="45.603017" lon="7.562555">
        <time>1970-01-01T00:00:00+00:00</time>
        <ele>2404.0</ele>
      </trkpt>
      <trkpt lat="45.603463" lon="7.562923">
        <time>1970-01-01T00:00:00+00:00</time>
        <ele>2409.0</ele>
      </trkpt>
      <trkpt lat="45.603573" lon="7.56312">
        <time>1970-01-01T00:00:00+00:00</time>
        <ele>2413.0</ele>
      </trkpt>
      <trkpt lat="45.603677" lon="7.563428">
        <time>1970-01-01T00:00:00+00:00</time>
        <ele>2419.0</ele>
      </trkpt>
      <trkpt lat="45.603694" lon="7.563494">
        <time>1970-01-01T00:00:00+00:00</time>
        <ele>2420.0</ele>
      </trkpt>
      <trkpt lat="45.603676" lon="7.56356">
        <time>1970-01-01T00:00:00+00:00</time>
        <ele>2423.0</ele>
      </trkpt>
      <trkpt lat="45.603622" lon="7.563532">
        <time>1970-01-01T00:00:00+00:00</time>
        <ele>2425.0</ele>
      </trkpt>
      <trkpt lat="45.603453" lon="7.563257">
        <time>1970-01-01T00:00:00+00:00</time>
        <ele>2421.0</ele>
      </trkpt>
      <trkpt lat="45.602948" lon="7.563054">
        <time>1970-01-01T00:00:00+00:00</time>
        <ele>2423.0</ele>
      </trkpt>
      <trkpt lat="45.602893" lon="7.56312">
        <time>1970-01-01T00:00:00+00:00</time>
        <ele>2426.0</ele>
      </trkpt>
      <trkpt lat="45.602976" lon="7.563185">
        <time>1970-01-01T00:00:00+00:00</time>
        <ele>2428.0</ele>
      </trkpt>
      <trkpt lat="45.603279" lon="7.56352">
        <time>1970-01-01T00:00:00+00:00</time>
        <ele>2435.0</ele>
      </trkpt>
      <trkpt lat="45.603297" lon="7.563612">
        <time>1970-01-01T00:00:00+00:00</time>
        <ele>2438.0</ele>
      </trkpt>
      <trkpt lat="45.603132" lon="7.563513">
        <time>1970-01-01T00:00:00+00:00</time>
        <ele>2440.0</ele>
      </trkpt>
      <trkpt lat="45.602958" lon="7.563467">
        <time>1970-01-01T00:00:00+00:00</time>
        <ele>2442.0</ele>
      </trkpt>
      <trkpt lat="45.602611" lon="7.563438">
        <time>1970-01-01T00:00:00+00:00</time>
        <ele>2445.0</ele>
      </trkpt>
      <trkpt lat="45.602589" lon="7.563468">
        <time>1970-01-01T00:00:00+00:00</time>
        <ele>2447.0</ele>
      </trkpt>
      <trkpt lat="45.602607" lon="7.56351">
        <time>1970-01-01T00:00:00+00:00</time>
        <ele>2449.0</ele>
      </trkpt>
      <trkpt lat="45.602783" lon="7.563645">
        <time>1970-01-01T00:00:00+00:00</time>
        <ele>2453.0</ele>
      </trkpt>
      <trkpt lat="45.603241" lon="7.564294">
        <time>1970-01-01T00:00:00+00:00</time>
        <ele>2460.0</ele>
      </trkpt>
      <trkpt lat="45.603237" lon="7.564363">
        <time>1970-01-01T00:00:00+00:00</time>
        <ele>2461.0</ele>
      </trkpt>
      <trkpt lat="45.603169" lon="7.564352">
        <time>1970-01-01T00:00:00+00:00</time>
        <ele>2463.0</ele>
      </trkpt>
      <trkpt lat="45.602852" lon="7.564176">
        <time>1970-01-01T00:00:00+00:00</time>
        <ele>2469.0</ele>
      </trkpt>
      <trkpt lat="45.602797" lon="7.564123">
        <time>1970-01-01T00:00:00+00:00</time>
        <ele>2468.0</ele>
      </trkpt>
      <trkpt lat="45.602719" lon="7.564099">
        <time>1970-01-01T00:00:00+00:00</time>
        <ele>2470.0</ele>
      </trkpt>
      <trkpt lat="45.602726" lon="7.564194">
        <time>1970-01-01T00:00:00+00:00</time>
        <ele>2473.0</ele>
      </trkpt>
      <trkpt lat="45.602758" lon="7.564276">
        <time>1970-01-01T00:00:00+00:00</time>
        <ele>2474.0</ele>
      </trkpt>
      <trkpt lat="45.602921" lon="7.564537">
        <time>1970-01-01T00:00:00+00:00</time>
        <ele>2476.0</ele>
      </trkpt>
      <trkpt lat="45.6031" lon="7.564891">
        <time>1970-01-01T00:00:00+00:00</time>
        <ele>2481.0</ele>
      </trkpt>
      <trkpt lat="45.603224" lon="7.565029">
        <time>1970-01-01T00:00:00+00:00</time>
        <ele>2482.0</ele>
      </trkpt>
      <trkpt lat="45.603288" lon="7.565147">
        <time>1970-01-01T00:00:00+00:00</time>
        <ele>2483.0</ele>
      </trkpt>
      <trkpt lat="45.603339" lon="7.565292">
        <time>1970-01-01T00:00:00+00:00</time>
        <ele>2486.0</ele>
      </trkpt>
      <trkpt lat="45.60333" lon="7.565548">
        <time>1970-01-01T00:00:00+00:00</time>
        <ele>2491.0</ele>
      </trkpt>
      <trkpt lat="45.603238" lon="7.565797">
        <time>1970-01-01T00:00:00+00:00</time>
        <ele>2494.0</ele>
      </trkpt>
      <trkpt lat="45.602962" lon="7.565941">
        <time>1970-01-01T00:00:00+00:00</time>
        <ele>2500.0</ele>
      </trkpt>
      <trkpt lat="45.602838" lon="7.566204">
        <time>1970-01-01T00:00:00+00:00</time>
        <ele>2498.0</ele>
      </trkpt>
      <trkpt lat="45.602581" lon="7.566558">
        <time>1970-01-01T00:00:00+00:00</time>
        <ele>2486.0</ele>
      </trkpt>
      <trkpt lat="45.602136" lon="7.56686">
        <time>1970-01-01T00:00:00+00:00</time>
        <ele>2479.0</ele>
      </trkpt>
      <trkpt lat="45.602026" lon="7.56686">
        <time>1970-01-01T00:00:00+00:00</time>
        <ele>2479.0</ele>
      </trkpt>
      <trkpt lat="45.601672" lon="7.567057">
        <time>1970-01-01T00:00:00+00:00</time>
        <ele>2475.0</ele>
      </trkpt>
      <trkpt lat="45.601571" lon="7.567201">
        <time>1970-01-01T00:00:00+00:00</time>
        <ele>2472.0</ele>
      </trkpt>
      <trkpt lat="45.601539" lon="7.567346">
        <time>1970-01-01T00:00:00+00:00</time>
        <ele>2469.0</ele>
      </trkpt>
      <trkpt lat="45.601502" lon="7.567707">
        <time>1970-01-01T00:00:00+00:00</time>
        <ele>2466.0</ele>
      </trkpt>
      <trkpt lat="45.601401" lon="7.567825">
        <time>1970-01-01T00:00:00+00:00</time>
        <ele>2464.0</ele>
      </trkpt>
      <trkpt lat="45.600974" lon="7.567648">
        <time>1970-01-01T00:00:00+00:00</time>
        <ele>2462.0</ele>
      </trkpt>
      <trkpt lat="45.600731" lon="7.567457">
        <time>1970-01-01T00:00:00+00:00</time>
        <ele>2457.0</ele>
      </trkpt>
      <trkpt lat="45.600579" lon="7.567365">
        <time>1970-01-01T00:00:00+00:00</time>
        <ele>2455.0</ele>
      </trkpt>
      <trkpt lat="45.600442" lon="7.567451">
        <time>1970-01-01T00:00:00+00:00</time>
        <ele>2452.0</ele>
      </trkpt>
      <trkpt lat="45.600354" lon="7.567667">
        <time>1970-01-01T00:00:00+00:00</time>
        <ele>2450.0</ele>
      </trkpt>
      <trkpt lat="45.600263" lon="7.567844">
        <time>1970-01-01T00:00:00+00:00</time>
        <ele>2448.0</ele>
      </trkpt>
      <trkpt lat="45.600175" lon="7.56791">
        <time>1970-01-01T00:00:00+00:00</time>
        <ele>2446.0</ele>
      </trkpt>
      <trkpt lat="45.600006" lon="7.567923">
        <time>1970-01-01T00:00:00+00:00</time>
        <ele>2443.0</ele>
      </trkpt>
      <trkpt lat="45.599849" lon="7.567812">
        <time>1970-01-01T00:00:00+00:00</time>
        <ele>2440.0</ele>
      </trkpt>
      <trkpt lat="45.599725" lon="7.567654">
        <time>1970-01-01T00:00:00+00:00</time>
        <ele>2437.0</ele>
      </trkpt>
      <trkpt lat="45.599601" lon="7.567319">
        <time>1970-01-01T00:00:00+00:00</time>
        <ele>2434.0</ele>
      </trkpt>
      <trkpt lat="45.599482" lon="7.567326">
        <time>1970-01-01T00:00:00+00:00</time>
        <ele>2430.0</ele>
      </trkpt>
      <trkpt lat="45.599441" lon="7.567569">
        <time>1970-01-01T00:00:00+00:00</time>
        <ele>2428.0</ele>
      </trkpt>
      <trkpt lat="45.599377" lon="7.567785">
        <time>1970-01-01T00:00:00+00:00</time>
        <ele>2426.0</ele>
      </trkpt>
      <trkpt lat="45.599321" lon="7.568225">
        <time>1970-01-01T00:00:00+00:00</time>
        <ele>2424.0</ele>
      </trkpt>
      <trkpt lat="45.599197" lon="7.568573">
        <time>1970-01-01T00:00:00+00:00</time>
        <ele>2420.0</ele>
      </trkpt>
      <trkpt lat="45.599023" lon="7.569373">
        <time>1970-01-01T00:00:00+00:00</time>
        <ele>2414.0</ele>
      </trkpt>
      <trkpt lat="45.598963" lon="7.569505">
        <time>1970-01-01T00:00:00+00:00</time>
        <ele>2413.0</ele>
      </trkpt>
      <trkpt lat="45.598982" lon="7.569642">
        <time>1970-01-01T00:00:00+00:00</time>
        <ele>2411.0</ele>
      </trkpt>
      <trkpt lat="45.599064" lon="7.569833">
        <time>1970-01-01T00:00:00+00:00</time>
        <ele>2410.0</ele>
      </trkpt>
      <trkpt lat="45.599011" lon="7.56997">
        <time>1970-01-01T00:00:00+00:00</time>
        <ele>2409.0</ele>
      </trkpt>
      <trkpt lat="45.598941" lon="7.5702">
        <time>1970-01-01T00:00:00+00:00</time>
        <ele>2409.0</ele>
      </trkpt>
      <trkpt lat="45.598882" lon="7.570263">
        <time>1970-01-01T00:00:00+00:00</time>
        <ele>2410.0</ele>
      </trkpt>
      <trkpt lat="45.598807" lon="7.570283">
        <time>1970-01-01T00:00:00+00:00</time>
        <ele>2412.0</ele>
      </trkpt>
      <trkpt lat="45.598712" lon="7.570234">
        <time>1970-01-01T00:00:00+00:00</time>
        <ele>2415.0</ele>
      </trkpt>
      <trkpt lat="45.598669" lon="7.570232">
        <time>1970-01-01T00:00:00+00:00</time>
        <ele>2416.0</ele>
      </trkpt>
      <trkpt lat="45.598578" lon="7.570255">
        <time>1970-01-01T00:00:00+00:00</time>
        <ele>2419.0</ele>
      </trkpt>
      <trkpt lat="45.598507" lon="7.570522">
        <time>1970-01-01T00:00:00+00:00</time>
        <ele>2423.0</ele>
      </trkpt>
      <trkpt lat="45.598238" lon="7.571037">
        <time>1970-01-01T00:00:00+00:00</time>
        <ele>2431.0</ele>
      </trkpt>
      <trkpt lat="45.598181" lon="7.571195">
        <time>1970-01-01T00:00:00+00:00</time>
        <ele>2432.0</ele>
      </trkpt>
      <trkpt lat="45.598142" lon="7.571232">
        <time>1970-01-01T00:00:00+00:00</time>
        <ele>2433.0</ele>
      </trkpt>
      <trkpt lat="45.598033" lon="7.571272">
        <time>1970-01-01T00:00:00+00:00</time>
        <ele>2436.0</ele>
      </trkpt>
      <trkpt lat="45.597686" lon="7.571209">
        <time>1970-01-01T00:00:00+00:00</time>
        <ele>2448.0</ele>
      </trkpt>
      <trkpt lat="45.597599" lon="7.57128">
        <time>1970-01-01T00:00:00+00:00</time>
        <ele>2449.0</ele>
      </trkpt>
      <trkpt lat="45.597244" lon="7.571372">
        <time>1970-01-01T00:00:00+00:00</time>
        <ele>2457.0</ele>
      </trkpt>
      <trkpt lat="45.597169" lon="7.571408">
        <time>1970-01-01T00:00:00+00:00</time>
        <ele>2459.0</ele>
      </trkpt>
      <trkpt lat="45.59706" lon="7.571511">
        <time>1970-01-01T00:00:00+00:00</time>
        <ele>2461.0</ele>
      </trkpt>
      <trkpt lat="45.596892" lon="7.571753">
        <time>1970-01-01T00:00:00+00:00</time>
        <ele>2464.0</ele>
      </trkpt>
      <trkpt lat="45.596825" lon="7.57189">
        <time>1970-01-01T00:00:00+00:00</time>
        <ele>2464.0</ele>
      </trkpt>
      <trkpt lat="45.596614" lon="7.572061">
        <time>1970-01-01T00:00:00+00:00</time>
        <ele>2468.0</ele>
      </trkpt>
      <trkpt lat="45.59658" lon="7.572138">
        <time>1970-01-01T00:00:00+00:00</time>
        <ele>2469.0</ele>
      </trkpt>
      <trkpt lat="45.59659" lon="7.572332">
        <time>1970-01-01T00:00:00+00:00</time>
        <ele>2468.0</ele>
      </trkpt>
      <trkpt lat="45.596576" lon="7.572468">
        <time>1970-01-01T00:00:00+00:00</time>
        <ele>2468.0</ele>
      </trkpt>
      <trkpt lat="45.596551" lon="7.572525">
        <time>1970-01-01T00:00:00+00:00</time>
        <ele>2469.0</ele>
      </trkpt>
      <trkpt lat="45.596334" lon="7.572839">
        <time>1970-01-01T00:00:00+00:00</time>
        <ele>2477.0</ele>
      </trkpt>
      <trkpt lat="45.596265" lon="7.573107">
        <time>1970-01-01T00:00:00+00:00</time>
        <ele>2476.0</ele>
      </trkpt>
      <trkpt lat="45.596223" lon="7.573202">
        <time>1970-01-01T00:00:00+00:00</time>
        <ele>2476.0</ele>
      </trkpt>
      <trkpt lat="45.596117" lon="7.573307">
        <time>1970-01-01T00:00:00+00:00</time>
        <ele>2478.0</ele>
      </trkpt>
      <trkpt lat="45.59587" lon="7.573445">
        <time>1970-01-01T00:00:00+00:00</time>
        <ele>2482.0</ele>
      </trkpt>
      <trkpt lat="45.595653" lon="7.573628">
        <time>1970-01-01T00:00:00+00:00</time>
        <ele>2486.0</ele>
      </trkpt>
      <trkpt lat="45.595483" lon="7.573721">
        <time>1970-01-01T00:00:00+00:00</time>
        <ele>2489.0</ele>
      </trkpt>
      <trkpt lat="45.595367" lon="7.573907">
        <time>1970-01-01T00:00:00+00:00</time>
        <ele>2489.0</ele>
      </trkpt>
      <trkpt lat="45.595272" lon="7.574027">
        <time>1970-01-01T00:00:00+00:00</time>
        <ele>2488.0</ele>
      </trkpt>
      <trkpt lat="45.595201" lon="7.574078">
        <time>1970-01-01T00:00:00+00:00</time>
        <ele>2488.0</ele>
      </trkpt>
      <trkpt lat="45.59479" lon="7.574108">
        <time>1970-01-01T00:00:00+00:00</time>
        <ele>2491.0</ele>
      </trkpt>
      <trkpt lat="45.594672" lon="7.574094">
        <time>1970-01-01T00:00:00+00:00</time>
        <ele>2492.0</ele>
      </trkpt>
      <trkpt lat="45.594506" lon="7.573995">
        <time>1970-01-01T00:00:00+00:00</time>
        <ele>2494.0</ele>
      </trkpt>
      <trkpt lat="45.59425" lon="7.573909">
        <time>1970-01-01T00:00:00+00:00</time>
        <ele>2496.0</ele>
      </trkpt>
      <trkpt lat="45.594136" lon="7.573904">
        <time>1970-01-01T00:00:00+00:00</time>
        <ele>2496.0</ele>
      </trkpt>
      <trkpt lat="45.594136" lon="7.573904">
        <time>1970-01-01T00:00:00+00:00</time>
        <ele>2496.0</ele>
      </trkpt>
      <trkpt lat="45.59425" lon="7.573909">
        <time>1970-01-01T00:00:00+00:00</time>
        <ele>2496.0</ele>
      </trkpt>
      <trkpt lat="45.594506" lon="7.573995">
        <time>1970-01-01T00:00:00+00:00</time>
        <ele>2494.0</ele>
      </trkpt>
      <trkpt lat="45.594672" lon="7.574094">
        <time>1970-01-01T00:00:00+00:00</time>
        <ele>2492.0</ele>
      </trkpt>
      <trkpt lat="45.59479" lon="7.574108">
        <time>1970-01-01T00:00:00+00:00</time>
        <ele>2491.0</ele>
      </trkpt>
      <trkpt lat="45.595201" lon="7.574078">
        <time>1970-01-01T00:00:00+00:00</time>
        <ele>2488.0</ele>
      </trkpt>
      <trkpt lat="45.595272" lon="7.574027">
        <time>1970-01-01T00:00:00+00:00</time>
        <ele>2488.0</ele>
      </trkpt>
      <trkpt lat="45.595367" lon="7.573907">
        <time>1970-01-01T00:00:00+00:00</time>
        <ele>2489.0</ele>
      </trkpt>
      <trkpt lat="45.595483" lon="7.573721">
        <time>1970-01-01T00:00:00+00:00</time>
        <ele>2489.0</ele>
      </trkpt>
      <trkpt lat="45.595653" lon="7.573628">
        <time>1970-01-01T00:00:00+00:00</time>
        <ele>2486.0</ele>
      </trkpt>
      <trkpt lat="45.59587" lon="7.573445">
        <time>1970-01-01T00:00:00+00:00</time>
        <ele>2482.0</ele>
      </trkpt>
      <trkpt lat="45.596117" lon="7.573307">
        <time>1970-01-01T00:00:00+00:00</time>
        <ele>2478.0</ele>
      </trkpt>
      <trkpt lat="45.596223" lon="7.573202">
        <time>1970-01-01T00:00:00+00:00</time>
        <ele>2476.0</ele>
      </trkpt>
      <trkpt lat="45.596265" lon="7.573107">
        <time>1970-01-01T00:00:00+00:00</time>
        <ele>2476.0</ele>
      </trkpt>
      <trkpt lat="45.596334" lon="7.572839">
        <time>1970-01-01T00:00:00+00:00</time>
        <ele>2477.0</ele>
      </trkpt>
      <trkpt lat="45.596551" lon="7.572525">
        <time>1970-01-01T00:00:00+00:00</time>
        <ele>2469.0</ele>
      </trkpt>
      <trkpt lat="45.596576" lon="7.572468">
        <time>1970-01-01T00:00:00+00:00</time>
        <ele>2468.0</ele>
      </trkpt>
      <trkpt lat="45.59659" lon="7.572332">
        <time>1970-01-01T00:00:00+00:00</time>
        <ele>2468.0</ele>
      </trkpt>
      <trkpt lat="45.59658" lon="7.572138">
        <time>1970-01-01T00:00:00+00:00</time>
        <ele>2469.0</ele>
      </trkpt>
      <trkpt lat="45.596614" lon="7.572061">
        <time>1970-01-01T00:00:00+00:00</time>
        <ele>2468.0</ele>
      </trkpt>
      <trkpt lat="45.596825" lon="7.57189">
        <time>1970-01-01T00:00:00+00:00</time>
        <ele>2464.0</ele>
      </trkpt>
      <trkpt lat="45.596892" lon="7.571753">
        <time>1970-01-01T00:00:00+00:00</time>
        <ele>2464.0</ele>
      </trkpt>
      <trkpt lat="45.59706" lon="7.571511">
        <time>1970-01-01T00:00:00+00:00</time>
        <ele>2461.0</ele>
      </trkpt>
      <trkpt lat="45.597169" lon="7.571408">
        <time>1970-01-01T00:00:00+00:00</time>
        <ele>2459.0</ele>
      </trkpt>
      <trkpt lat="45.597244" lon="7.571372">
        <time>1970-01-01T00:00:00+00:00</time>
        <ele>2457.0</ele>
      </trkpt>
      <trkpt lat="45.597599" lon="7.57128">
        <time>1970-01-01T00:00:00+00:00</time>
        <ele>2449.0</ele>
      </trkpt>
      <trkpt lat="45.597686" lon="7.571209">
        <time>1970-01-01T00:00:00+00:00</time>
        <ele>2448.0</ele>
      </trkpt>
      <trkpt lat="45.598033" lon="7.571272">
        <time>1970-01-01T00:00:00+00:00</time>
        <ele>2436.0</ele>
      </trkpt>
      <trkpt lat="45.598142" lon="7.571232">
        <time>1970-01-01T00:00:00+00:00</time>
        <ele>2433.0</ele>
      </trkpt>
      <trkpt lat="45.598181" lon="7.571195">
        <time>1970-01-01T00:00:00+00:00</time>
        <ele>2432.0</ele>
      </trkpt>
      <trkpt lat="45.598238" lon="7.571037">
        <time>1970-01-01T00:00:00+00:00</time>
        <ele>2431.0</ele>
      </trkpt>
      <trkpt lat="45.598507" lon="7.570522">
        <time>1970-01-01T00:00:00+00:00</time>
        <ele>2423.0</ele>
      </trkpt>
      <trkpt lat="45.598578" lon="7.570255">
        <time>1970-01-01T00:00:00+00:00</time>
        <ele>2419.0</ele>
      </trkpt>
      <trkpt lat="45.598669" lon="7.570232">
        <time>1970-01-01T00:00:00+00:00</time>
        <ele>2416.0</ele>
      </trkpt>
      <trkpt lat="45.598712" lon="7.570234">
        <time>1970-01-01T00:00:00+00:00</time>
        <ele>2415.0</ele>
      </trkpt>
      <trkpt lat="45.598807" lon="7.570283">
        <time>1970-01-01T00:00:00+00:00</time>
        <ele>2412.0</ele>
      </trkpt>
      <trkpt lat="45.598882" lon="7.570263">
        <time>1970-01-01T00:00:00+00:00</time>
        <ele>2410.0</ele>
      </trkpt>
      <trkpt lat="45.598941" lon="7.5702">
        <time>1970-01-01T00:00:00+00:00</time>
        <ele>2409.0</ele>
      </trkpt>
      <trkpt lat="45.599011" lon="7.56997">
        <time>1970-01-01T00:00:00+00:00</time>
        <ele>2409.0</ele>
      </trkpt>
      <trkpt lat="45.599161" lon="7.570261">
        <time>1970-01-01T00:00:00+00:00</time>
        <ele>2408.0</ele>
      </trkpt>
      <trkpt lat="45.599236" lon="7.570594">
        <time>1970-01-01T00:00:00+00:00</time>
        <ele>2406.0</ele>
      </trkpt>
      <trkpt lat="45.599386" lon="7.570819">
        <time>1970-01-01T00:00:00+00:00</time>
        <ele>2403.0</ele>
      </trkpt>
      <trkpt lat="45.599675" lon="7.571125">
        <time>1970-01-01T00:00:00+00:00</time>
        <ele>2394.0</ele>
      </trkpt>
      <trkpt lat="45.600298" lon="7.57156">
        <time>1970-01-01T00:00:00+00:00</time>
        <ele>2378.0</ele>
      </trkpt>
      <trkpt lat="45.600407" lon="7.571771">
        <time>1970-01-01T00:00:00+00:00</time>
        <ele>2372.0</ele>
      </trkpt>
      <trkpt lat="45.60052" lon="7.572093">
        <time>1970-01-01T00:00:00+00:00</time>
        <ele>2363.0</ele>
      </trkpt>
      <trkpt lat="45.600663" lon="7.572364">
        <time>1970-01-01T00:00:00+00:00</time>
        <ele>2360.0</ele>
      </trkpt>
      <trkpt lat="45.600779" lon="7.572528">
        <time>1970-01-01T00:00:00+00:00</time>
        <ele>2357.0</ele>
      </trkpt>
      <trkpt lat="45.600993" lon="7.57274">
        <time>1970-01-01T00:00:00+00:00</time>
        <ele>2356.0</ele>
      </trkpt>
      <trkpt lat="45.601113" lon="7.572898">
        <time>1970-01-01T00:00:00+00:00</time>
        <ele>2353.0</ele>
      </trkpt>
      <trkpt lat="45.601513" lon="7.57326">
        <time>1970-01-01T00:00:00+00:00</time>
        <ele>2347.0</ele>
      </trkpt>
      <trkpt lat="45.601621" lon="7.57348">
        <time>1970-01-01T00:00:00+00:00</time>
        <ele>2340.0</ele>
      </trkpt>
      <trkpt lat="45.601788" lon="7.57399">
        <time>1970-01-01T00:00:00+00:00</time>
        <ele>2329.0</ele>
      </trkpt>
      <trkpt lat="45.602164" lon="7.574668">
        <time>1970-01-01T00:00:00+00:00</time>
        <ele>2316.0</ele>
      </trkpt>
      <trkpt lat="45.602244" lon="7.574751">
        <time>1970-01-01T00:00:00+00:00</time>
        <ele>2316.0</ele>
      </trkpt>
      <trkpt lat="45.602509" lon="7.574934">
        <time>1970-01-01T00:00:00+00:00</time>
        <ele>2313.0</ele>
      </trkpt>
      <trkpt lat="45.602601" lon="7.575057">
        <time>1970-01-01T00:00:00+00:00</time>
        <ele>2310.0</ele>
      </trkpt>
      <trkpt lat="45.602717" lon="7.575119">
        <time>1970-01-01T00:00:00+00:00</time>
        <ele>2311.0</ele>
      </trkpt>
      <trkpt lat="45.602845" lon="7.575253">
        <time>1970-01-01T00:00:00+00:00</time>
        <ele>2309.0</ele>
      </trkpt>
      <trkpt lat="45.602959" lon="7.57543">
        <time>1970-01-01T00:00:00+00:00</time>
        <ele>2307.0</ele>
      </trkpt>
      <trkpt lat="45.603048" lon="7.575623">
        <time>1970-01-01T00:00:00+00:00</time>
        <ele>2304.0</ele>
      </trkpt>
      <trkpt lat="45.603126" lon="7.575921">
        <time>1970-01-01T00:00:00+00:00</time>
        <ele>2296.0</ele>
      </trkpt>
      <trkpt lat="45.603164" lon="7.576184">
        <time>1970-01-01T00:00:00+00:00</time>
        <ele>2290.0</ele>
      </trkpt>
      <trkpt lat="45.603233" lon="7.576447">
        <time>1970-01-01T00:00:00+00:00</time>
        <ele>2284.0</ele>
      </trkpt>
      <trkpt lat="45.6032" lon="7.57694">
        <time>1970-01-01T00:00:00+00:00</time>
        <ele>2271.0</ele>
      </trkpt>
      <trkpt lat="45.603205" lon="7.577305">
        <time>1970-01-01T00:00:00+00:00</time>
        <ele>2264.0</ele>
      </trkpt>
      <trkpt lat="45.603228" lon="7.577587">
        <time>1970-01-01T00:00:00+00:00</time>
        <ele>2259.0</ele>
      </trkpt>
      <trkpt lat="45.603224" lon="7.577935">
        <time>1970-01-01T00:00:00+00:00</time>
        <ele>2251.0</ele>
      </trkpt>
      <trkpt lat="45.603248" lon="7.578016">
        <time>1970-01-01T00:00:00+00:00</time>
        <ele>2248.0</ele>
      </trkpt>
      <trkpt lat="45.603278" lon="7.578056">
        <time>1970-01-01T00:00:00+00:00</time>
        <ele>2247.0</ele>
      </trkpt>
      <trkpt lat="45.603323" lon="7.578093">
        <time>1970-01-01T00:00:00+00:00</time>
        <ele>2245.0</ele>
      </trkpt>
      <trkpt lat="45.603498" lon="7.578037">
        <time>1970-01-01T00:00:00+00:00</time>
        <ele>2244.0</ele>
      </trkpt>
      <trkpt lat="45.603594" lon="7.578029">
        <time>1970-01-01T00:00:00+00:00</time>
        <ele>2242.0</ele>
      </trkpt>
      <trkpt lat="45.603721" lon="7.578093">
        <time>1970-01-01T00:00:00+00:00</time>
        <ele>2237.0</ele>
      </trkpt>
      <trkpt lat="45.604048" lon="7.578059">
        <time>1970-01-01T00:00:00+00:00</time>
        <ele>2233.0</ele>
      </trkpt>
      <trkpt lat="45.604538" lon="7.578059">
        <time>1970-01-01T00:00:00+00:00</time>
        <ele>2225.0</ele>
      </trkpt>
      <trkpt lat="45.604616" lon="7.578093">
        <time>1970-01-01T00:00:00+00:00</time>
        <ele>2223.0</ele>
      </trkpt>
      <trkpt lat="45.604759" lon="7.578244">
        <time>1970-01-01T00:00:00+00:00</time>
        <ele>2215.0</ele>
      </trkpt>
      <trkpt lat="45.60496" lon="7.57834">
        <time>1970-01-01T00:00:00+00:00</time>
        <ele>2212.0</ele>
      </trkpt>
      <trkpt lat="45.605283" lon="7.578397">
        <time>1970-01-01T00:00:00+00:00</time>
        <ele>2208.0</ele>
      </trkpt>
      <trkpt lat="45.605401" lon="7.578458">
        <time>1970-01-01T00:00:00+00:00</time>
        <ele>2205.0</ele>
      </trkpt>
      <trkpt lat="45.605496" lon="7.578552">
        <time>1970-01-01T00:00:00+00:00</time>
        <ele>2201.0</ele>
      </trkpt>
      <trkpt lat="45.605643" lon="7.578756">
        <time>1970-01-01T00:00:00+00:00</time>
        <ele>2193.0</ele>
      </trkpt>
      <trkpt lat="45.605774" lon="7.578804">
        <time>1970-01-01T00:00:00+00:00</time>
        <ele>2191.0</ele>
      </trkpt>
      <trkpt lat="45.605956" lon="7.578807">
        <time>1970-01-01T00:00:00+00:00</time>
        <ele>2189.0</ele>
      </trkpt>
      <trkpt lat="45.606084" lon="7.578853">
        <time>1970-01-01T00:00:00+00:00</time>
        <ele>2186.0</ele>
      </trkpt>
      <trkpt lat="45.606146" lon="7.578895">
        <time>1970-01-01T00:00:00+00:00</time>
        <ele>2183.0</ele>
      </trkpt>
      <trkpt lat="45.606144" lon="7.578954">
        <time>1970-01-01T00:00:00+00:00</time>
        <ele>2181.0</ele>
      </trkpt>
      <trkpt lat="45.606116" lon="7.579005">
        <time>1970-01-01T00:00:00+00:00</time>
        <ele>2180.0</ele>
      </trkpt>
      <trkpt lat="45.606129" lon="7.579056">
        <time>1970-01-01T00:00:00+00:00</time>
        <ele>2178.0</ele>
      </trkpt>
      <trkpt lat="45.606187" lon="7.579054">
        <time>1970-01-01T00:00:00+00:00</time>
        <ele>2177.0</ele>
      </trkpt>
      <trkpt lat="45.606472" lon="7.578831">
        <time>1970-01-01T00:00:00+00:00</time>
        <ele>2178.0</ele>
      </trkpt>
      <trkpt lat="45.6066" lon="7.578769">
        <time>1970-01-01T00:00:00+00:00</time>
        <ele>2176.0</ele>
      </trkpt>
      <trkpt lat="45.606724" lon="7.578753">
        <time>1970-01-01T00:00:00+00:00</time>
        <ele>2174.0</ele>
      </trkpt>
      <trkpt lat="45.606838" lon="7.578743">
        <time>1970-01-01T00:00:00+00:00</time>
        <ele>2172.0</ele>
      </trkpt>
      <trkpt lat="45.607011" lon="7.578802">
        <time>1970-01-01T00:00:00+00:00</time>
        <ele>2166.0</ele>
      </trkpt>
      <trkpt lat="45.607091" lon="7.578955">
        <time>1970-01-01T00:00:00+00:00</time>
        <ele>2160.0</ele>
      </trkpt>
      <trkpt lat="45.607112" lon="7.57908">
        <time>1970-01-01T00:00:00+00:00</time>
        <ele>2157.0</ele>
      </trkpt>
      <trkpt lat="45.607472" lon="7.579569">
        <time>1970-01-01T00:00:00+00:00</time>
        <ele>2141.0</ele>
      </trkpt>
      <trkpt lat="45.607616" lon="7.579537">
        <time>1970-01-01T00:00:00+00:00</time>
        <ele>2139.0</ele>
      </trkpt>
      <trkpt lat="45.607778" lon="7.579379">
        <time>1970-01-01T00:00:00+00:00</time>
        <ele>2142.0</ele>
      </trkpt>
      <trkpt lat="45.607866" lon="7.579324">
        <time>1970-01-01T00:00:00+00:00</time>
        <ele>2143.0</ele>
      </trkpt>
      <trkpt lat="45.607962" lon="7.579364">
        <time>1970-01-01T00:00:00+00:00</time>
        <ele>2140.0</ele>
      </trkpt>
      <trkpt lat="45.608165" lon="7.579627">
        <time>1970-01-01T00:00:00+00:00</time>
        <ele>2130.0</ele>
      </trkpt>
      <trkpt lat="45.608264" lon="7.579689">
        <time>1970-01-01T00:00:00+00:00</time>
        <ele>2127.0</ele>
      </trkpt>
      <trkpt lat="45.60836" lon="7.579697">
        <time>1970-01-01T00:00:00+00:00</time>
        <ele>2126.0</ele>
      </trkpt>
      <trkpt lat="45.608533" lon="7.57969">
        <time>1970-01-01T00:00:00+00:00</time>
        <ele>2124.0</ele>
      </trkpt>
      <trkpt lat="45.608475" lon="7.579535">
        <time>1970-01-01T00:00:00+00:00</time>
        <ele>2128.0</ele>
      </trkpt>
      <trkpt lat="45.608475" lon="7.578859">
        <time>1970-01-01T00:00:00+00:00</time>
        <ele>2147.0</ele>
      </trkpt>
      <trkpt lat="45.608517" lon="7.578467">
        <time>1970-01-01T00:00:00+00:00</time>
        <ele>2156.0</ele>
      </trkpt>
      <trkpt lat="45.608644" lon="7.577893">
        <time>1970-01-01T00:00:00+00:00</time>
        <ele>2160.0</ele>
      </trkpt>
      <trkpt lat="45.608879" lon="7.57722">
        <time>1970-01-01T00:00:00+00:00</time>
        <ele>2147.0</ele>
      </trkpt>
      <trkpt lat="45.608907" lon="7.577094">
        <time>1970-01-01T00:00:00+00:00</time>
        <ele>2147.0</ele>
      </trkpt>
      <trkpt lat="45.608915" lon="7.576573">
        <time>1970-01-01T00:00:00+00:00</time>
        <ele>2159.0</ele>
      </trkpt>
      <trkpt lat="45.608946" lon="7.576308">
        <time>1970-01-01T00:00:00+00:00</time>
        <ele>2166.0</ele>
      </trkpt>
      <trkpt lat="45.608937" lon="7.576219">
        <time>1970-01-01T00:00:00+00:00</time>
        <ele>2169.0</ele>
      </trkpt>
      <trkpt lat="45.60908" lon="7.575916">
        <time>1970-01-01T00:00:00+00:00</time>
        <ele>2164.0</ele>
      </trkpt>
      <trkpt lat="45.609155" lon="7.575809">
        <time>1970-01-01T00:00:00+00:00</time>
        <ele>2160.0</ele>
      </trkpt>
      <trkpt lat="45.60919" lon="7.575699">
        <time>1970-01-01T00:00:00+00:00</time>
        <ele>2159.0</ele>
      </trkpt>
      <trkpt lat="45.609218" lon="7.575533">
        <time>1970-01-01T00:00:00+00:00</time>
        <ele>2160.0</ele>
      </trkpt>
      <trkpt lat="45.609307" lon="7.57535">
        <time>1970-01-01T00:00:00+00:00</time>
        <ele>2157.0</ele>
      </trkpt>
      <trkpt lat="45.609376" lon="7.575256">
        <time>1970-01-01T00:00:00+00:00</time>
        <ele>2153.0</ele>
      </trkpt>
      <trkpt lat="45.609457" lon="7.574921">
        <time>1970-01-01T00:00:00+00:00</time>
        <ele>2157.0</ele>
      </trkpt>
      <trkpt lat="45.609541" lon="7.574717">
        <time>1970-01-01T00:00:00+00:00</time>
        <ele>2157.0</ele>
      </trkpt>
      <trkpt lat="45.609669" lon="7.574497">
        <time>1970-01-01T00:00:00+00:00</time>
        <ele>2150.0</ele>
      </trkpt>
      <trkpt lat="45.609718" lon="7.574366">
        <time>1970-01-01T00:00:00+00:00</time>
        <ele>2147.0</ele>
      </trkpt>
      <trkpt lat="45.609832" lon="7.573961">
        <time>1970-01-01T00:00:00+00:00</time>
        <ele>2143.0</ele>
      </trkpt>
      <trkpt lat="45.609862" lon="7.573813">
        <time>1970-01-01T00:00:00+00:00</time>
        <ele>2141.0</ele>
      </trkpt>
      <trkpt lat="45.609864" lon="7.57372">
        <time>1970-01-01T00:00:00+00:00</time>
        <ele>2141.0</ele>
      </trkpt>
      <trkpt lat="45.609924" lon="7.573494">
        <time>1970-01-01T00:00:00+00:00</time>
        <ele>2137.0</ele>
      </trkpt>
      <trkpt lat="45.609982" lon="7.573121">
        <time>1970-01-01T00:00:00+00:00</time>
        <ele>2134.0</ele>
      </trkpt>
      <trkpt lat="45.609961" lon="7.573011">
        <time>1970-01-01T00:00:00+00:00</time>
        <ele>2135.0</ele>
      </trkpt>
      <trkpt lat="45.609969" lon="7.572869">
        <time>1970-01-01T00:00:00+00:00</time>
        <ele>2135.0</ele>
      </trkpt>
      <trkpt lat="45.609961" lon="7.572757">
        <time>1970-01-01T00:00:00+00:00</time>
        <ele>2135.0</ele>
      </trkpt>
      <trkpt lat="45.609937" lon="7.57266">
        <time>1970-01-01T00:00:00+00:00</time>
        <ele>2138.0</ele>
      </trkpt>
      <trkpt lat="45.609935" lon="7.572555">
        <time>1970-01-01T00:00:00+00:00</time>
        <ele>2139.0</ele>
      </trkpt>
      <trkpt lat="45.609967" lon="7.572416">
        <time>1970-01-01T00:00:00+00:00</time>
        <ele>2137.0</ele>
      </trkpt>
      <trkpt lat="45.609977" lon="7.572097">
        <time>1970-01-01T00:00:00+00:00</time>
        <ele>2138.0</ele>
      </trkpt>
      <trkpt lat="45.609961" lon="7.571799">
        <time>1970-01-01T00:00:00+00:00</time>
        <ele>2138.0</ele>
      </trkpt>
      <trkpt lat="45.609926" lon="7.571517">
        <time>1970-01-01T00:00:00+00:00</time>
        <ele>2139.0</ele>
      </trkpt>
      <trkpt lat="45.609811" lon="7.570941">
        <time>1970-01-01T00:00:00+00:00</time>
        <ele>2143.0</ele>
      </trkpt>
      <trkpt lat="45.609808" lon="7.570654">
        <time>1970-01-01T00:00:00+00:00</time>
        <ele>2141.0</ele>
      </trkpt>
      <trkpt lat="45.609789" lon="7.57053">
        <time>1970-01-01T00:00:00+00:00</time>
        <ele>2140.0</ele>
      </trkpt>
      <trkpt lat="45.609695" lon="7.570166">
        <time>1970-01-01T00:00:00+00:00</time>
        <ele>2140.0</ele>
      </trkpt>
      <trkpt lat="45.609643" lon="7.570109">
        <time>1970-01-01T00:00:00+00:00</time>
        <ele>2143.0</ele>
      </trkpt>
      <trkpt lat="45.609605" lon="7.570037">
        <time>1970-01-01T00:00:00+00:00</time>
        <ele>2144.0</ele>
      </trkpt>
      <trkpt lat="45.609564" lon="7.569594">
        <time>1970-01-01T00:00:00+00:00</time>
        <ele>2141.0</ele>
      </trkpt>
      <trkpt lat="45.609571" lon="7.56942">
        <time>1970-01-01T00:00:00+00:00</time>
        <ele>2138.0</ele>
      </trkpt>
      <trkpt lat="45.609552" lon="7.569291">
        <time>1970-01-01T00:00:00+00:00</time>
        <ele>2138.0</ele>
      </trkpt>
      <trkpt lat="45.609417" lon="7.568768">
        <time>1970-01-01T00:00:00+00:00</time>
        <ele>2142.0</ele>
      </trkpt>
      <trkpt lat="45.609376" lon="7.567808">
        <time>1970-01-01T00:00:00+00:00</time>
        <ele>2140.0</ele>
      </trkpt>
      <trkpt lat="45.609382" lon="7.567695">
        <time>1970-01-01T00:00:00+00:00</time>
        <ele>2140.0</ele>
      </trkpt>
      <trkpt lat="45.609324" lon="7.567135">
        <time>1970-01-01T00:00:00+00:00</time>
        <ele>2143.0</ele>
      </trkpt>
      <trkpt lat="45.609324" lon="7.566948">
        <time>1970-01-01T00:00:00+00:00</time>
        <ele>2143.0</ele>
      </trkpt>
      <trkpt lat="45.609306" lon="7.566777">
        <time>1970-01-01T00:00:00+00:00</time>
        <ele>2144.0</ele>
      </trkpt>
      <trkpt lat="45.609343" lon="7.56642">
        <time>1970-01-01T00:00:00+00:00</time>
        <ele>2140.0</ele>
      </trkpt>
      <trkpt lat="45.60934" lon="7.566337">
        <time>1970-01-01T00:00:00+00:00</time>
        <ele>2140.0</ele>
      </trkpt>
      <trkpt lat="45.609296" lon="7.565972">
        <time>1970-01-01T00:00:00+00:00</time>
        <ele>2141.0</ele>
      </trkpt>
      <trkpt lat="45.609261" lon="7.565335">
        <time>1970-01-01T00:00:00+00:00</time>
        <ele>2144.0</ele>
      </trkpt>
      <trkpt lat="45.609234" lon="7.565229">
        <time>1970-01-01T00:00:00+00:00</time>
        <ele>2147.0</ele>
      </trkpt>
      <trkpt lat="45.60919" lon="7.565177">
        <time>1970-01-01T00:00:00+00:00</time>
        <ele>2150.0</ele>
      </trkpt>
      <trkpt lat="45.60921" lon="7.565008">
        <time>1970-01-01T00:00:00+00:00</time>
        <ele>2150.0</ele>
      </trkpt>
      <trkpt lat="45.609189" lon="7.564735">
        <time>1970-01-01T00:00:00+00:00</time>
        <ele>2154.0</ele>
      </trkpt>
      <trkpt lat="45.609193" lon="7.564418">
        <time>1970-01-01T00:00:00+00:00</time>
        <ele>2162.0</ele>
      </trkpt>
      <trkpt lat="45.609206" lon="7.564317">
        <time>1970-01-01T00:00:00+00:00</time>
        <ele>2163.0</ele>
      </trkpt>
      <trkpt lat="45.609318" lon="7.56396">
        <time>1970-01-01T00:00:00+00:00</time>
        <ele>2166.0</ele>
      </trkpt>
      <trkpt lat="45.609332" lon="7.563932">
        <time>1970-01-01T00:00:00+00:00</time>
        <ele>2166.0</ele>
      </trkpt>
      <trkpt lat="45.609405" lon="7.5639">
        <time>1970-01-01T00:00:00+00:00</time>
        <ele>2163.0</ele>
      </trkpt>
      <trkpt lat="45.609428" lon="7.563869">
        <time>1970-01-01T00:00:00+00:00</time>
        <ele>2163.0</ele>
      </trkpt>
      <trkpt lat="45.609421" lon="7.563825">
        <time>1970-01-01T00:00:00+00:00</time>
        <ele>2165.0</ele>
      </trkpt>
      <trkpt lat="45.609377" lon="7.563764">
        <time>1970-01-01T00:00:00+00:00</time>
        <ele>2169.0</ele>
      </trkpt>
      <trkpt lat="45.609371" lon="7.563726">
        <time>1970-01-01T00:00:00+00:00</time>
        <ele>2170.0</ele>
      </trkpt>
      <trkpt lat="45.609398" lon="7.563665">
        <time>1970-01-01T00:00:00+00:00</time>
        <ele>2171.0</ele>
      </trkpt>
      <trkpt lat="45.609392" lon="7.563634">
        <time>1970-01-01T00:00:00+00:00</time>
        <ele>2172.0</ele>
      </trkpt>
      <trkpt lat="45.609332" lon="7.563612">
        <time>1970-01-01T00:00:00+00:00</time>
        <ele>2176.0</ele>
      </trkpt>
      <trkpt lat="45.609431" lon="7.563413">
        <time>1970-01-01T00:00:00+00:00</time>
        <ele>2178.0</ele>
      </trkpt>
      <trkpt lat="45.609448" lon="7.56319">
        <time>1970-01-01T00:00:00+00:00</time>
        <ele>2181.0</ele>
      </trkpt>
      <trkpt lat="45.609451" lon="7.563117">
        <time>1970-01-01T00:00:00+00:00</time>
        <ele>2181.0</ele>
      </trkpt>
      <trkpt lat="45.609428" lon="7.56295">
        <time>1970-01-01T00:00:00+00:00</time>
        <ele>2183.0</ele>
      </trkpt>
      <trkpt lat="45.609414" lon="7.562425">
        <time>1970-01-01T00:00:00+00:00</time>
        <ele>2188.0</ele>
      </trkpt>
      <trkpt lat="45.609382" lon="7.562183">
        <time>1970-01-01T00:00:00+00:00</time>
        <ele>2192.0</ele>
      </trkpt>
      <trkpt lat="45.609431" lon="7.561894">
        <time>1970-01-01T00:00:00+00:00</time>
        <ele>2192.0</ele>
      </trkpt>
      <trkpt lat="45.609422" lon="7.56169">
        <time>1970-01-01T00:00:00+00:00</time>
        <ele>2194.0</ele>
      </trkpt>
      <trkpt lat="45.609337" lon="7.561424">
        <time>1970-01-01T00:00:00+00:00</time>
        <ele>2199.0</ele>
      </trkpt>
      <trkpt lat="45.609312" lon="7.561274">
        <time>1970-01-01T00:00:00+00:00</time>
        <ele>2201.0</ele>
      </trkpt>
      <trkpt lat="45.60937" lon="7.560901">
        <time>1970-01-01T00:00:00+00:00</time>
        <ele>2199.0</ele>
      </trkpt>
      <trkpt lat="45.609359" lon="7.560636">
        <time>1970-01-01T00:00:00+00:00</time>
        <ele>2199.0</ele>
      </trkpt>
      <trkpt lat="45.609311" lon="7.560414">
        <time>1970-01-01T00:00:00+00:00</time>
        <ele>2200.0</ele>
      </trkpt>
      <trkpt lat="45.609215" lon="7.560183">
        <time>1970-01-01T00:00:00+00:00</time>
        <ele>2202.0</ele>
      </trkpt>
      <trkpt lat="45.609163" lon="7.559946">
        <time>1970-01-01T00:00:00+00:00</time>
        <ele>2202.0</ele>
      </trkpt>
      <trkpt lat="45.609157" lon="7.559783">
        <time>1970-01-01T00:00:00+00:00</time>
        <ele>2202.0</ele>
      </trkpt>
      <trkpt lat="45.609114" lon="7.559565">
        <time>1970-01-01T00:00:00+00:00</time>
        <ele>2202.0</ele>
      </trkpt>
      <trkpt lat="45.60895" lon="7.559224">
        <time>1970-01-01T00:00:00+00:00</time>
        <ele>2206.0</ele>
      </trkpt>
      <trkpt lat="45.60874" lon="7.558892">
        <time>1970-01-01T00:00:00+00:00</time>
        <ele>2208.0</ele>
      </trkpt>
      <trkpt lat="45.608582" lon="7.558587">
        <time>1970-01-01T00:00:00+00:00</time>
        <ele>2211.0</ele>
      </trkpt>
      <trkpt lat="45.608467" lon="7.558449">
        <time>1970-01-01T00:00:00+00:00</time>
        <ele>2216.0</ele>
      </trkpt>
      <trkpt lat="45.608484" lon="7.557954">
        <time>1970-01-01T00:00:00+00:00</time>
        <ele>2215.0</ele>
      </trkpt>
      <trkpt lat="45.608556" lon="7.55778">
        <time>1970-01-01T00:00:00+00:00</time>
        <ele>2211.0</ele>
      </trkpt>
      <trkpt lat="45.608542" lon="7.557369">
        <time>1970-01-01T00:00:00+00:00</time>
        <ele>2207.0</ele>
      </trkpt>
      <trkpt lat="45.608434" lon="7.556949">
        <time>1970-01-01T00:00:00+00:00</time>
        <ele>2202.0</ele>
      </trkpt>
      <trkpt lat="45.608233" lon="7.556488">
        <time>1970-01-01T00:00:00+00:00</time>
        <ele>2200.0</ele>
      </trkpt>
      <trkpt lat="45.607946" lon="7.55618">
        <time>1970-01-01T00:00:00+00:00</time>
        <ele>2204.0</ele>
      </trkpt>
      <trkpt lat="45.607839" lon="7.556016">
        <time>1970-01-01T00:00:00+00:00</time>
        <ele>2204.0</ele>
      </trkpt>
      <trkpt lat="45.607652" lon="7.555842">
        <time>1970-01-01T00:00:00+00:00</time>
        <ele>2208.0</ele>
      </trkpt>
      <trkpt lat="45.607501" lon="7.555637">
        <time>1970-01-01T00:00:00+00:00</time>
        <ele>2213.0</ele>
      </trkpt>
      <trkpt lat="45.607358" lon="7.555288">
        <time>1970-01-01T00:00:00+00:00</time>
        <ele>2218.0</ele>
      </trkpt>
      <trkpt lat="45.607128" lon="7.554519">
        <time>1970-01-01T00:00:00+00:00</time>
        <ele>2221.0</ele>
      </trkpt>
      <trkpt lat="45.606978" lon="7.554252">
        <time>1970-01-01T00:00:00+00:00</time>
        <ele>2224.0</ele>
      </trkpt>
      <trkpt lat="45.606773" lon="7.553972">
        <time>1970-01-01T00:00:00+00:00</time>
        <ele>2225.0</ele>
      </trkpt>
      <trkpt lat="45.606529" lon="7.553578">
        <time>1970-01-01T00:00:00+00:00</time>
        <ele>2225.0</ele>
      </trkpt>
      <trkpt lat="45.606392" lon="7.553526">
        <time>1970-01-01T00:00:00+00:00</time>
        <ele>2224.0</ele>
      </trkpt>
      <trkpt lat="45.6063" lon="7.55346">
        <time>1970-01-01T00:00:00+00:00</time>
        <ele>2224.0</ele>
      </trkpt>
      <trkpt lat="45.606304" lon="7.553388">
        <time>1970-01-01T00:00:00+00:00</time>
        <ele>2224.0</ele>
      </trkpt>
      <trkpt lat="45.60654" lon="7.553078">
        <time>1970-01-01T00:00:00+00:00</time>
        <ele>2225.0</ele>
      </trkpt>
      <trkpt lat="45.60681" lon="7.552906">
        <time>1970-01-01T00:00:00+00:00</time>
        <ele>2228.0</ele>
      </trkpt>
      <trkpt lat="45.607085" lon="7.552771">
        <time>1970-01-01T00:00:00+00:00</time>
        <ele>2231.0</ele>
      </trkpt>
      <trkpt lat="45.607411" lon="7.552699">
        <time>1970-01-01T00:00:00+00:00</time>
        <ele>2230.0</ele>
      </trkpt>
      <trkpt lat="45.607516" lon="7.552791">
        <time>1970-01-01T00:00:00+00:00</time>
        <ele>2228.0</ele>
      </trkpt>
      <trkpt lat="45.607645" lon="7.552804">
        <time>1970-01-01T00:00:00+00:00</time>
        <ele>2227.0</ele>
      </trkpt>
      <trkpt lat="45.607738" lon="7.552689">
        <time>1970-01-01T00:00:00+00:00</time>
        <ele>2229.0</ele>
      </trkpt>
      <trkpt lat="45.607838" lon="7.552608">
        <time>1970-01-01T00:00:00+00:00</time>
        <ele>2230.0</ele>
      </trkpt>
      <trkpt lat="45.607999" lon="7.552659">
        <time>1970-01-01T00:00:00+00:00</time>
        <ele>2230.0</ele>
      </trkpt>
      <trkpt lat="45.608177" lon="7.552666">
        <time>1970-01-01T00:00:00+00:00</time>
        <ele>2231.0</ele>
      </trkpt>
      <trkpt lat="45.608325" lon="7.552635">
        <time>1970-01-01T00:00:00+00:00</time>
        <ele>2232.0</ele>
      </trkpt>
      <trkpt lat="45.608457" lon="7.55266">
        <time>1970-01-01T00:00:00+00:00</time>
        <ele>2232.0</ele>
      </trkpt>
      <trkpt lat="45.608616" lon="7.552615">
        <time>1970-01-01T00:00:00+00:00</time>
        <ele>2233.0</ele>
      </trkpt>
      <trkpt lat="45.608714" lon="7.55263">
        <time>1970-01-01T00:00:00+00:00</time>
        <ele>2232.0</ele>
      </trkpt>
      <trkpt lat="45.608834" lon="7.552686">
        <time>1970-01-01T00:00:00+00:00</time>
        <ele>2232.0</ele>
      </trkpt>
      <trkpt lat="45.609293" lon="7.552758">
        <time>1970-01-01T00:00:00+00:00</time>
        <ele>2231.0</ele>
      </trkpt>
      <trkpt lat="45.609458" lon="7.552856">
        <time>1970-01-01T00:00:00+00:00</time>
        <ele>2230.0</ele>
      </trkpt>
      <trkpt lat="45.609614" lon="7.552988">
        <time>1970-01-01T00:00:00+00:00</time>
        <ele>2228.0</ele>
      </trkpt>
      <trkpt lat="45.609785" lon="7.553173">
        <time>1970-01-01T00:00:00+00:00</time>
        <ele>2225.0</ele>
      </trkpt>
      <trkpt lat="45.609954" lon="7.553325">
        <time>1970-01-01T00:00:00+00:00</time>
        <ele>2222.0</ele>
      </trkpt>
      <trkpt lat="45.61003" lon="7.553327">
        <time>1970-01-01T00:00:00+00:00</time>
        <ele>2221.0</ele>
      </trkpt>
      <trkpt lat="45.610152" lon="7.55325">
        <time>1970-01-01T00:00:00+00:00</time>
        <ele>2217.0</ele>
      </trkpt>
      <trkpt lat="45.610216" lon="7.553096">
        <time>1970-01-01T00:00:00+00:00</time>
        <ele>2215.0</ele>
      </trkpt>
      <trkpt lat="45.610233" lon="7.552983">
        <time>1970-01-01T00:00:00+00:00</time>
        <ele>2214.0</ele>
      </trkpt>
      <trkpt lat="45.610316" lon="7.552707">
        <time>1970-01-01T00:00:00+00:00</time>
        <ele>2211.0</ele>
      </trkpt>
      <trkpt lat="45.610323" lon="7.552558">
        <time>1970-01-01T00:00:00+00:00</time>
        <ele>2210.0</ele>
      </trkpt>
      <trkpt lat="45.610295" lon="7.552165">
        <time>1970-01-01T00:00:00+00:00</time>
        <ele>2207.0</ele>
      </trkpt>
      <trkpt lat="45.610332" lon="7.552093">
        <time>1970-01-01T00:00:00+00:00</time>
        <ele>2206.0</ele>
      </trkpt>
      <trkpt lat="45.610533" lon="7.55211">
        <time>1970-01-01T00:00:00+00:00</time>
        <ele>2205.0</ele>
      </trkpt>
      <trkpt lat="45.610696" lon="7.552067">
        <time>1970-01-01T00:00:00+00:00</time>
        <ele>2203.0</ele>
      </trkpt>
      <trkpt lat="45.610776" lon="7.551889">
        <time>1970-01-01T00:00:00+00:00</time>
        <ele>2202.0</ele>
      </trkpt>
      <trkpt lat="45.610813" lon="7.551631">
        <time>1970-01-01T00:00:00+00:00</time>
        <ele>2202.0</ele>
      </trkpt>
      <trkpt lat="45.610818" lon="7.551601">
        <time>1970-01-01T00:00:00+00:00</time>
        <ele>2202.0</ele>
      </trkpt>
      <trkpt lat="45.611269" lon="7.551294">
        <time>1970-01-01T00:00:00+00:00</time>
        <ele>2200.0</ele>
      </trkpt>
      <trkpt lat="45.611372" lon="7.55132">
        <time>1970-01-01T00:00:00+00:00</time>
        <ele>2199.0</ele>
      </trkpt>
      <trkpt lat="45.611672" lon="7.551663">
        <time>1970-01-01T00:00:00+00:00</time>
        <ele>2191.0</ele>
      </trkpt>
      <trkpt lat="45.611737" lon="7.551706">
        <time>1970-01-01T00:00:00+00:00</time>
        <ele>2190.0</ele>
      </trkpt>
      <trkpt lat="45.611981" lon="7.551689">
        <time>1970-01-01T00:00:00+00:00</time>
        <ele>2187.0</ele>
      </trkpt>
      <trkpt lat="45.612035" lon="7.551708">
        <time>1970-01-01T00:00:00+00:00</time>
        <ele>2187.0</ele>
      </trkpt>
      <trkpt lat="45.612111" lon="7.551797">
        <time>1970-01-01T00:00:00+00:00</time>
        <ele>2186.0</ele>
      </trkpt>
      <trkpt lat="45.612219" lon="7.551717">
        <time>1970-01-01T00:00:00+00:00</time>
        <ele>2186.0</ele>
      </trkpt>
      <trkpt lat="45.612235" lon="7.551671">
        <time>1970-01-01T00:00:00+00:00</time>
        <ele>2186.0</ele>
      </trkpt>
      <trkpt lat="45.612227" lon="7.551619">
        <time>1970-01-01T00:00:00+00:00</time>
        <ele>2186.0</ele>
      </trkpt>
    </trkseg>
  </trk>
</gpx>
